Time,TemperatureF,DewpointF,PressureIn,WindDirection,WindDirectionDegrees,WindSpeedMPH,WindSpeedGustMPH,Humidity,HourlyPrecipIn,Conditions,Clouds,dailyrainin,SoftwareType,DateUTC
2013-04-25 00:01:00,48.5,35.7,30.07,ENE,65,0.0,0.0,61,0.00,,---,0.00,VWS V14.01,2013-04-25 07:01:00,
2013-04-25 00:06:00,48.2,34.6,30.07,ENE,65,2.0,2.0,59,0.00,,---,0.00,VWS V14.01,2013-04-25 07:06:00,
2013-04-25 00:11:00,47.9,34.7,30.07,ENE,65,2.0,2.0,60,0.00,,---,0.00,VWS V14.01,2013-04-25 07:11:00,
2013-04-25 00:16:00,47.8,34.6,30.07,ENE,65,2.0,2.0,60,0.00,,---,0.00,VWS V14.01,2013-04-25 07:16:00,
2013-04-25 00:21:00,47.9,34.7,30.07,ENE,72,1.0,2.0,60,0.00,,---,0.00,VWS V14.01,2013-04-25 07:21:00,
2013-04-25 00:25:00,48.2,35.0,30.07,ENE,58,2.0,2.0,60,0.00,,---,0.00,VWS V14.01,2013-04-25 07:25:00,
2013-04-25 00:30:00,48.3,35.1,30.07,East,82,1.0,2.0,60,0.00,,---,0.00,VWS V14.01,2013-04-25 07:30:00,
2013-04-25 00:35:00,48.5,35.3,30.07,East,83,0.0,2.0,60,0.00,,---,0.00,VWS V14.01,2013-04-25 07:35:00,
2013-04-25 00:40:00,48.3,35.5,30.07,East,83,1.0,2.0,61,0.00,,---,0.00,VWS V14.01,2013-04-25 07:40:00,
2013-04-25 00:45:00,48.0,35.6,30.07,East,83,0.0,0.0,62,0.00,,---,0.00,VWS V14.01,2013-04-25 07:45:00,
2013-04-25 00:50:00,47.6,34.8,30.07,East,83,0.0,0.0,61,0.00,,---,0.00,VWS V14.01,2013-04-25 07:50:00,
2013-04-25 00:55:00,47.3,35.4,30.07,East,83,1.0,2.0,63,0.00,,---,0.00,VWS V14.01,2013-04-25 07:55:00,
2013-04-25 01:00:00,47.1,34.8,30.07,ENE,75,2.0,2.0,62,0.00,,---,0.00,VWS V14.01,2013-04-25 08:00:00,
2013-04-25 01:05:00,47.0,35.1,30.07,ENE,75,2.0,2.0,63,0.00,,---,0.00,VWS V14.01,2013-04-25 08:05:00,
2013-04-25 01:10:00,46.7,35.2,30.08,ENE,65,1.0,3.0,64,0.00,,---,0.00,VWS V14.01,2013-04-25 08:10:00,
2013-04-25 01:15:00,46.6,35.1,30.08,NE,53,2.0,4.0,64,0.00,,---,0.00,VWS V14.01,2013-04-25 08:15:00,
2013-04-25 01:20:00,46.7,35.2,30.07,ENE,74,3.0,4.0,64,0.00,,---,0.00,VWS V14.01,2013-04-25 08:20:00,
2013-04-25 01:25:00,47.5,36.3,30.07,ENE,66,3.0,5.0,65,0.00,,---,0.00,VWS V14.01,2013-04-25 08:25:00,
2013-04-25 01:30:00,48.0,36.4,30.07,ENE,59,1.0,1.0,64,0.00,,---,0.00,VWS V14.01,2013-04-25 08:30:00,
2013-04-25 01:35:00,48.1,36.5,30.07,ENE,69,1.0,3.0,64,0.00,,---,0.00,VWS V14.01,2013-04-25 08:35:00,
2013-04-25 01:40:00,47.9,36.7,30.07,East,86,1.0,3.0,65,0.00,,---,0.00,VWS V14.01,2013-04-25 08:40:00,
2013-04-25 01:45:00,47.7,36.5,30.07,ENE,75,2.0,3.0,65,0.00,,---,0.00,VWS V14.01,2013-04-25 08:45:00,
2013-04-25 01:50:00,47.4,37.0,30.07,ENE,75,2.0,2.0,67,0.00,,---,0.00,VWS V14.01,2013-04-25 08:50:00,
2013-04-25 01:55:00,46.9,36.5,30.07,ENE,75,2.0,3.0,67,0.00,,---,0.00,VWS V14.01,2013-04-25 08:55:00,
2013-04-25 02:00:00,46.4,36.8,30.07,ENE,65,3.0,4.0,69,0.00,,---,0.00,VWS V14.01,2013-04-25 09:00:00,
2013-04-25 02:05:00,46.4,36.4,30.07,NE,56,2.0,3.0,68,0.00,,---,0.00,VWS V14.01,2013-04-25 09:05:00,
2013-04-25 02:10:00,46.5,36.2,30.07,NE,56,1.0,3.0,67,0.00,,---,0.00,VWS V14.01,2013-04-25 09:10:00,
2013-04-25 02:15:00,46.5,36.5,30.07,NE,56,0.0,3.0,68,0.00,,---,0.00,VWS V14.01,2013-04-25 09:15:00,
2013-04-25 02:20:00,46.2,36.6,30.07,NE,56,2.0,2.0,69,0.00,,---,0.00,VWS V14.01,2013-04-25 09:20:00,
2013-04-25 02:25:00,46.3,37.1,30.07,ESE,111,0.0,3.0,70,0.00,,---,0.00,VWS V14.01,2013-04-25 09:25:00,
2013-04-25 02:30:00,46.1,36.9,30.07,ESE,111,0.0,3.0,70,0.00,,---,0.00,VWS V14.01,2013-04-25 09:30:00,
2013-04-25 02:35:00,45.7,36.8,30.06,ESE,111,0.0,1.0,71,0.00,,---,0.00,VWS V14.01,2013-04-25 09:35:00,
2013-04-25 02:40:00,45.4,36.6,30.07,ESE,111,0.0,2.0,71,0.00,,---,0.00,VWS V14.01,2013-04-25 09:40:00,
2013-04-25 02:45:00,45.1,36.6,30.07,ESE,111,2.0,2.0,72,0.00,,---,0.00,VWS V14.01,2013-04-25 09:45:00,
2013-04-25 02:50:00,44.9,36.4,30.06,ESE,105,1.0,2.0,72,0.00,,---,0.00,VWS V14.01,2013-04-25 09:50:00,
2013-04-25 02:55:00,44.6,36.2,30.06,ENE,69,2.0,3.0,72,0.00,,---,0.00,VWS V14.01,2013-04-25 09:55:00,
2013-04-25 03:00:00,44.4,36.0,30.06,ENE,69,1.0,3.0,72,0.00,,---,0.00,VWS V14.01,2013-04-25 10:00:00,
2013-04-25 03:05:00,44.4,36.0,30.06,NE,55,1.0,2.0,72,0.00,,---,0.00,VWS V14.01,2013-04-25 10:05:00,
2013-04-25 03:10:00,44.3,35.5,30.06,NE,55,0.0,2.0,71,0.00,,---,0.00,VWS V14.01,2013-04-25 10:10:00,
2013-04-25 03:15:00,44.3,35.5,30.06,NE,55,1.0,2.0,71,0.00,,---,0.00,VWS V14.01,2013-04-25 10:15:00,
2013-04-25 03:20:00,44.2,35.4,30.06,NE,55,1.0,2.0,71,0.00,,---,0.00,VWS V14.01,2013-04-25 10:20:00,
2013-04-25 03:25:00,44.1,35.3,30.07,NE,55,0.0,2.0,71,0.00,,---,0.00,VWS V14.01,2013-04-25 10:25:00,
2013-04-25 03:30:00,43.9,35.8,30.06,NE,55,0.0,2.0,73,0.00,,---,0.00,VWS V14.01,2013-04-25 10:30:00,
2013-04-25 03:35:00,44.0,35.9,30.06,NE,55,0.0,2.0,73,0.00,,---,0.00,VWS V14.01,2013-04-25 10:35:00,
2013-04-25 03:40:00,43.9,35.8,30.06,NE,55,0.0,2.0,73,0.00,,---,0.00,VWS V14.01,2013-04-25 10:40:00,
2013-04-25 03:45:00,43.9,35.8,30.06,NE,55,0.0,2.0,73,0.00,,---,0.00,VWS V14.01,2013-04-25 10:45:00,
2013-04-25 03:50:00,44.0,35.9,30.06,NE,55,0.0,1.0,73,0.00,,---,0.00,VWS V14.01,2013-04-25 10:50:00,
2013-04-25 03:55:00,44.1,36.0,30.06,NE,55,0.0,1.0,73,0.00,,---,0.00,VWS V14.01,2013-04-25 10:55:00,
2013-04-25 04:00:00,44.2,36.1,30.06,NE,55,0.0,1.0,73,0.00,,---,0.00,VWS V14.01,2013-04-25 11:00:00,
2013-04-25 04:05:00,44.3,35.9,30.06,NE,55,0.0,0.0,72,0.00,,---,0.00,VWS V14.01,2013-04-25 11:05:00,
2013-04-25 04:10:00,44.4,36.3,30.06,NE,55,1.0,2.0,73,0.00,,---,0.00,VWS V14.01,2013-04-25 11:10:00,
2013-04-25 04:15:00,44.5,36.4,30.06,NE,55,1.0,2.0,73,0.00,,---,0.00,VWS V14.01,2013-04-25 11:15:00,
2013-04-25 04:20:00,44.5,36.7,30.06,NE,55,0.0,1.0,74,0.00,,---,0.00,VWS V14.01,2013-04-25 11:20:00,
2013-04-25 04:25:00,44.6,36.2,30.06,NE,55,0.0,2.0,72,0.00,,---,0.00,VWS V14.01,2013-04-25 11:25:00,
2013-04-25 04:30:00,44.8,36.0,30.06,NE,55,0.0,2.0,71,0.00,,---,0.00,VWS V14.01,2013-04-25 11:30:00,
2013-04-25 04:35:00,44.9,36.1,30.06,NE,55,0.0,0.0,71,0.00,,---,0.00,VWS V14.01,2013-04-25 11:35:00,
2013-04-25 04:40:00,44.7,36.2,30.06,NE,55,0.0,1.0,72,0.00,,---,0.00,VWS V14.01,2013-04-25 11:40:00,
2013-04-25 04:45:00,44.5,36.0,30.06,NE,55,0.0,1.0,72,0.00,,---,0.00,VWS V14.01,2013-04-25 11:45:00,
2013-04-25 04:50:00,44.2,35.8,30.06,NE,55,0.0,2.0,72,0.00,,---,0.00,VWS V14.01,2013-04-25 11:50:00,
2013-04-25 04:55:00,44.0,35.9,30.06,NE,55,1.0,2.0,73,0.00,,---,0.00,VWS V14.01,2013-04-25 11:55:00,
2013-04-25 05:00:00,44.0,35.9,30.06,NE,55,1.0,2.0,73,0.00,,---,0.00,VWS V14.01,2013-04-25 12:00:00,
2013-04-25 05:05:00,43.9,35.8,30.06,NE,55,2.0,2.0,73,0.00,,---,0.00,VWS V14.01,2013-04-25 12:05:00,
2013-04-25 05:10:00,43.7,36.0,30.06,NE,55,1.0,2.0,74,0.00,,---,0.00,VWS V14.01,2013-04-25 12:10:00,
2013-04-25 05:15:00,43.8,36.1,30.06,NE,55,0.0,2.0,74,0.00,,---,0.00,VWS V14.01,2013-04-25 12:15:00,
2013-04-25 05:20:00,43.9,36.2,30.06,NE,55,0.0,1.0,74,0.00,,---,0.00,VWS V14.01,2013-04-25 12:20:00,
2013-04-25 05:25:00,44.0,36.3,30.06,NE,55,0.0,1.0,74,0.00,,---,0.00,VWS V14.01,2013-04-25 12:25:00,
2013-04-25 05:30:00,44.0,36.3,30.05,NE,55,0.0,2.0,74,0.00,,---,0.00,VWS V14.01,2013-04-25 12:30:00,
2013-04-25 05:35:00,44.1,36.7,30.05,NE,55,0.0,2.0,75,0.00,,---,0.00,VWS V14.01,2013-04-25 12:35:00,
2013-04-25 05:40:00,43.9,36.5,30.06,NE,55,0.0,2.0,75,0.00,,---,0.00,VWS V14.01,2013-04-25 12:40:00,
2013-04-25 05:45:00,43.7,36.6,30.06,NE,55,0.0,2.0,76,0.00,,---,0.00,VWS V14.01,2013-04-25 12:45:00,
2013-04-25 05:50:00,43.7,36.6,30.06,NE,55,1.0,2.0,76,0.00,,---,0.00,VWS V14.01,2013-04-25 12:50:00,
2013-04-25 05:55:00,44.0,37.6,30.06,NE,55,0.0,2.0,78,0.00,,---,0.00,VWS V14.01,2013-04-25 12:55:00,
2013-04-25 06:00:00,44.5,37.4,30.06,NE,55,1.0,2.0,76,0.00,,---,0.00,VWS V14.01,2013-04-25 13:00:00,
2013-04-25 06:05:00,44.7,37.6,30.06,NE,55,0.0,1.0,76,0.00,,---,0.00,VWS V14.01,2013-04-25 13:05:00,
2013-04-25 06:10:00,45.1,38.0,30.06,NE,55,0.0,1.0,76,0.00,,---,0.00,VWS V14.01,2013-04-25 13:10:00,
2013-04-25 06:15:00,45.2,38.1,30.06,NE,55,0.0,1.0,76,0.00,,---,0.00,VWS V14.01,2013-04-25 13:15:00,
2013-04-25 06:20:00,45.5,38.0,30.06,NE,55,0.0,1.0,75,0.00,,---,0.00,VWS V14.01,2013-04-25 13:20:00,
2013-04-25 06:25:00,45.3,38.2,30.06,NE,55,0.0,1.0,76,0.00,,---,0.00,VWS V14.01,2013-04-25 13:25:00,
2013-04-25 06:30:00,45.2,38.1,30.06,NE,55,1.0,1.0,76,0.00,,---,0.00,VWS V14.01,2013-04-25 13:30:00,
2013-04-25 06:35:00,45.1,38.3,30.06,NE,55,0.0,1.0,77,0.00,,---,0.00,VWS V14.01,2013-04-25 13:35:00,
2013-04-25 06:40:00,45.0,38.2,30.06,NE,55,0.0,1.0,77,0.00,,---,0.00,VWS V14.01,2013-04-25 13:40:00,
2013-04-25 06:45:00,44.9,38.1,30.06,NE,55,0.0,1.0,77,0.00,,---,0.00,VWS V14.01,2013-04-25 13:45:00,
2013-04-25 06:50:00,45.0,38.2,30.06,NE,55,0.0,0.0,77,0.00,,---,0.00,VWS V14.01,2013-04-25 13:50:00,
2013-04-25 06:55:00,45.1,38.3,30.06,NE,55,1.0,1.0,77,0.00,,---,0.00,VWS V14.01,2013-04-25 13:55:00,
2013-04-25 07:00:00,45.1,38.7,30.06,NE,55,1.0,1.0,78,0.00,,---,0.00,VWS V14.01,2013-04-25 14:00:00,
2013-04-25 07:05:00,45.2,38.8,30.06,NE,55,1.0,2.0,78,0.00,,---,0.00,VWS V14.01,2013-04-25 14:05:00,
2013-04-25 07:10:00,45.6,38.8,30.06,NE,55,1.0,2.0,77,0.00,,---,0.00,VWS V14.01,2013-04-25 14:10:00,
2013-04-25 07:15:00,46.1,39.3,30.07,NE,55,0.0,2.0,77,0.00,,---,0.00,VWS V14.01,2013-04-25 14:15:00,
2013-04-25 07:20:00,46.9,39.4,30.07,ENE,67,1.0,2.0,75,0.00,,---,0.00,VWS V14.01,2013-04-25 14:20:00,
2013-04-25 07:25:00,47.9,40.0,30.07,ENE,66,1.0,2.0,74,0.00,,---,0.00,VWS V14.01,2013-04-25 14:25:00,
2013-04-25 07:30:00,48.6,40.0,30.07,ENE,65,1.0,2.0,72,0.00,,---,0.00,VWS V14.01,2013-04-25 14:30:00,
2013-04-25 07:35:00,48.9,39.9,30.07,NE,55,1.0,3.0,71,0.00,,---,0.00,VWS V14.01,2013-04-25 14:35:00,
2013-04-25 07:40:00,49.2,40.2,30.07,NE,55,0.0,3.0,71,0.00,,---,0.00,VWS V14.01,2013-04-25 14:40:00,
2013-04-25 07:45:00,49.4,40.4,30.07,NE,55,0.0,3.0,71,0.00,,---,0.00,VWS V14.01,2013-04-25 14:45:00,
2013-04-25 07:50:00,50.0,40.2,30.07,NE,56,0.0,4.0,69,0.00,,---,0.00,VWS V14.01,2013-04-25 14:50:00,
2013-04-25 07:55:00,50.4,41.0,30.07,NE,56,0.0,4.0,70,0.00,,---,0.00,VWS V14.01,2013-04-25 14:55:00,
2013-04-25 08:00:00,51.0,40.4,30.07,ENE,59,0.0,4.0,67,0.00,,---,0.00,VWS V14.01,2013-04-25 15:00:00,
2013-04-25 08:05:00,51.7,41.5,30.07,ENE,64,0.0,2.0,68,0.00,,---,0.00,VWS V14.01,2013-04-25 15:05:00,
2013-04-25 08:10:00,52.1,41.5,30.08,ENE,64,0.0,2.0,67,0.00,,---,0.00,VWS V14.01,2013-04-25 15:10:00,
2013-04-25 08:15:00,52.3,40.9,30.08,ESE,116,1.0,2.0,65,0.00,,---,0.00,VWS V14.01,2013-04-25 15:15:00,
2013-04-25 08:20:00,52.5,41.1,30.08,ESE,107,1.0,1.0,65,0.00,,---,0.00,VWS V14.01,2013-04-25 15:20:00,
2013-04-25 08:25:00,52.7,40.9,30.08,ENE,76,1.0,2.0,64,0.00,,---,0.00,VWS V14.01,2013-04-25 15:25:00,
2013-04-25 08:30:00,52.6,41.6,30.08,East,81,0.0,2.0,66,0.00,,---,0.00,VWS V14.01,2013-04-25 15:30:00,
2013-04-25 08:35:00,53.1,40.4,30.08,NE,44,2.0,4.0,62,0.00,,---,0.00,VWS V14.01,2013-04-25 15:35:00,
2013-04-25 08:40:00,53.7,41.4,30.08,NE,45,0.0,4.0,63,0.00,,---,0.00,VWS V14.01,2013-04-25 15:40:00,
2013-04-25 08:45:00,54.2,41.5,30.08,NE,45,0.0,4.0,62,0.00,,---,0.00,VWS V14.01,2013-04-25 15:45:00,
2013-04-25 08:50:00,55.0,41.4,30.08,NE,45,0.0,1.0,60,0.00,,---,0.00,VWS V14.01,2013-04-25 15:50:00,
2013-04-25 08:55:00,55.5,41.4,30.07,WNW,300,0.0,2.0,59,0.00,,---,0.00,VWS V14.01,2013-04-25 15:55:00,
2013-04-25 09:00:00,55.9,40.5,30.07,ESE,103,2.0,3.0,56,0.00,,---,0.00,VWS V14.01,2013-04-25 16:00:00,
2013-04-25 09:05:00,56.2,39.3,30.07,East,99,1.0,3.0,53,0.00,,---,0.00,VWS V14.01,2013-04-25 16:05:00,
2013-04-25 09:10:00,56.3,38.9,30.07,SW,227,1.0,3.0,52,0.00,,---,0.00,VWS V14.01,2013-04-25 16:10:00,
2013-04-25 09:15:00,56.5,38.6,30.07,ESE,119,1.0,3.0,51,0.00,,---,0.00,VWS V14.01,2013-04-25 16:15:00,
2013-04-25 09:20:00,57.1,39.7,30.08,NE,35,1.0,5.0,52,0.00,,---,0.00,VWS V14.01,2013-04-25 16:20:00,
2013-04-25 09:25:00,57.8,38.8,30.08,NNW,330,0.0,5.0,49,0.00,,---,0.00,VWS V14.01,2013-04-25 16:25:00,
2013-04-25 09:30:00,57.3,39.8,30.08,SSE,156,2.0,5.0,52,0.00,,---,0.00,VWS V14.01,2013-04-25 16:30:00,
2013-04-25 09:35:00,57.2,40.2,30.08,North,5,0.0,2.0,53,0.00,,---,0.00,VWS V14.01,2013-04-25 16:35:00,
2013-04-25 09:40:00,57.1,40.2,30.08,South,177,0.0,3.0,53,0.00,,---,0.00,VWS V14.01,2013-04-25 16:40:00,
2013-04-25 09:45:00,58.3,39.8,30.08,ENE,66,1.0,3.0,50,0.00,,---,0.00,VWS V14.01,2013-04-25 16:45:00,
2013-04-25 09:50:00,58.5,40.5,30.09,West,262,1.0,3.0,51,0.00,,---,0.00,VWS V14.01,2013-04-25 16:50:00,
2013-04-25 09:55:00,57.6,40.6,30.08,SSW,208,2.0,3.0,53,0.00,,---,0.00,VWS V14.01,2013-04-25 16:55:00,
2013-04-25 10:00:00,56.7,40.3,30.09,SW,223,2.0,3.0,54,0.00,,---,0.00,VWS V14.01,2013-04-25 17:00:00,
2013-04-25 10:05:00,56.4,40.9,30.09,SSE,147,0.0,4.0,56,0.00,,---,0.00,VWS V14.01,2013-04-25 17:05:00,
2013-04-25 10:10:00,56.5,41.0,30.09,WSW,254,1.0,4.0,56,0.00,,---,0.00,VWS V14.01,2013-04-25 17:10:00,
2013-04-25 10:15:00,56.8,40.8,30.08,SSW,209,2.0,5.0,55,0.00,,---,0.00,VWS V14.01,2013-04-25 17:15:00,
2013-04-25 10:20:00,57.0,40.5,30.09,South,175,0.0,4.0,54,0.00,,---,0.00,VWS V14.01,2013-04-25 17:20:00,
2013-04-25 10:25:00,57.0,40.5,30.09,West,281,2.0,4.0,54,0.00,,---,0.00,VWS V14.01,2013-04-25 17:25:00,
2013-04-25 10:30:00,57.3,41.3,30.09,SSE,152,2.0,4.0,55,0.00,,---,0.00,VWS V14.01,2013-04-25 17:30:00,
2013-04-25 10:35:00,57.5,40.5,30.09,SSW,202,2.0,4.0,53,0.00,,---,0.00,VWS V14.01,2013-04-25 17:35:00,
2013-04-25 10:40:00,57.5,40.5,30.09,NNW,335,0.0,4.0,53,0.00,,---,0.00,VWS V14.01,2013-04-25 17:40:00,
2013-04-25 10:45:00,57.8,40.8,30.09,WSW,238,1.0,4.0,53,0.00,,---,0.00,VWS V14.01,2013-04-25 17:45:00,
2013-04-25 10:50:00,58.1,41.1,30.09,WSW,257,2.0,4.0,53,0.00,,---,0.00,VWS V14.01,2013-04-25 17:50:00,
2013-04-25 10:55:00,58.6,41.5,30.09,ESE,108,2.0,4.0,53,0.00,,---,0.00,VWS V14.01,2013-04-25 17:55:00,
2013-04-25 11:00:00,58.6,40.5,30.09,SE,144,2.0,4.0,51,0.00,,---,0.00,VWS V14.01,2013-04-25 18:00:00,
2013-04-25 11:05:00,58.5,39.4,30.09,South,191,1.0,3.0,49,0.00,,---,0.00,VWS V14.01,2013-04-25 18:05:00,
2013-04-25 11:10:00,58.6,39.5,30.09,SW,215,5.0,5.0,49,0.00,,---,0.00,VWS V14.01,2013-04-25 18:10:00,
2013-04-25 11:15:00,58.6,39.5,30.09,West,260,4.0,7.0,49,0.00,,---,0.00,VWS V14.01,2013-04-25 18:15:00,
2013-04-25 11:20:00,58.8,39.7,30.09,SSW,196,0.0,6.0,49,0.00,,---,0.00,VWS V14.01,2013-04-25 18:20:00,
2013-04-25 11:25:00,59.0,39.4,30.09,SSW,211,3.0,7.0,48,0.00,,---,0.00,VWS V14.01,2013-04-25 18:25:00,
2013-04-25 11:30:00,59.3,40.2,30.09,West,281,4.0,7.0,49,0.00,,---,0.00,VWS V14.01,2013-04-25 18:30:00,
2013-04-25 11:35:00,59.8,40.1,30.10,SW,224,4.0,6.0,48,0.00,,---,0.00,VWS V14.01,2013-04-25 18:35:00,
2013-04-25 11:40:00,59.6,39.4,30.09,SSW,205,4.0,7.0,47,0.00,,---,0.00,VWS V14.01,2013-04-25 18:40:00,
2013-04-25 11:45:00,59.7,39.5,30.09,West,277,1.0,7.0,47,0.00,,---,0.00,VWS V14.01,2013-04-25 18:45:00,
2013-04-25 11:50:00,60.0,39.2,30.09,WSW,246,2.0,6.0,46,0.00,,---,0.00,VWS V14.01,2013-04-25 18:50:00,
2013-04-25 11:55:00,60.5,39.6,30.09,WSW,242,5.0,6.0,46,0.00,,---,0.00,VWS V14.01,2013-04-25 18:55:00,
2013-04-25 12:00:00,60.7,39.8,30.09,WNW,294,1.0,7.0,46,0.00,,---,0.00,VWS V14.01,2013-04-25 19:00:00,
2013-04-25 12:05:00,61.3,40.9,30.09,East,82,2.0,4.0,47,0.00,,---,0.00,VWS V14.01,2013-04-25 19:05:00,
2013-04-25 12:10:00,61.7,40.2,30.09,SW,234,4.0,6.0,45,0.00,,---,0.00,VWS V14.01,2013-04-25 19:10:00,
2013-04-25 12:15:00,61.8,40.3,30.09,SW,232,7.0,7.0,45,0.00,,---,0.00,VWS V14.01,2013-04-25 19:15:00,
2013-04-25 12:20:00,61.7,40.2,30.09,WSW,246,4.0,8.0,45,0.00,,---,0.00,VWS V14.01,2013-04-25 19:20:00,
2013-04-25 12:25:00,62.1,39.4,30.09,ESE,123,0.0,8.0,43,0.00,,---,0.00,VWS V14.01,2013-04-25 19:25:00,
2013-04-25 12:30:00,62.5,39.1,30.09,SSW,201,5.0,8.0,42,0.00,,---,0.00,VWS V14.01,2013-04-25 19:30:00,
2013-04-25 12:35:00,62.7,38.7,30.09,SE,132,1.0,4.0,41,0.00,,---,0.00,VWS V14.01,2013-04-25 19:35:00,
2013-04-25 12:40:00,63.1,39.0,30.09,ESE,117,3.0,4.0,41,0.00,,---,0.00,VWS V14.01,2013-04-25 19:40:00,
2013-04-25 12:45:00,63.4,38.7,30.09,NNW,347,1.0,4.0,40,0.00,,---,0.00,VWS V14.01,2013-04-25 19:45:00,
2013-04-25 12:50:00,64.1,39.3,30.09,ENE,64,4.0,7.0,40,0.00,,---,0.00,VWS V14.01,2013-04-25 19:50:00,
2013-04-25 12:55:00,64.4,38.3,30.09,WSW,242,3.0,7.0,38,0.00,,---,0.00,VWS V14.01,2013-04-25 19:55:00,
2013-04-25 13:00:00,64.1,38.0,30.09,SSW,199,1.0,7.0,38,0.00,,---,0.00,VWS V14.01,2013-04-25 20:00:00,
2013-04-25 13:05:00,63.9,37.1,30.09,West,263,0.0,3.0,37,0.00,,---,0.00,VWS V14.01,2013-04-25 20:05:00,
2013-04-25 13:10:00,63.8,37.0,30.09,SSW,201,4.0,7.0,37,0.00,,---,0.00,VWS V14.01,2013-04-25 20:10:00,
2013-04-25 13:15:00,63.9,37.1,30.09,West,279,4.0,7.0,37,0.00,,---,0.00,VWS V14.01,2013-04-25 20:15:00,
2013-04-25 13:20:00,64.0,38.6,30.09,SW,215,0.0,6.0,39,0.00,,---,0.00,VWS V14.01,2013-04-25 20:20:00,
2013-04-25 13:25:00,64.4,38.3,30.09,SW,215,1.0,6.0,38,0.00,,---,0.00,VWS V14.01,2013-04-25 20:25:00,
2013-04-25 13:30:00,64.6,38.4,30.08,WSW,246,1.0,6.0,38,0.00,,---,0.00,VWS V14.01,2013-04-25 20:30:00,
2013-04-25 13:35:00,64.4,38.3,30.09,WSW,258,2.0,5.0,38,0.00,,---,0.00,VWS V14.01,2013-04-25 20:35:00,
2013-04-25 13:40:00,65.0,40.1,30.09,NNE,32,3.0,5.0,40,0.00,,---,0.00,VWS V14.01,2013-04-25 20:40:00,
2013-04-25 13:45:00,65.6,38.7,30.09,SSW,202,2.0,5.0,37,0.00,,---,0.00,VWS V14.01,2013-04-25 20:45:00,
2013-04-25 13:50:00,65.5,38.6,30.09,East,90,0.0,4.0,37,0.00,,---,0.00,VWS V14.01,2013-04-25 20:50:00,
2013-04-25 13:55:00,65.4,39.8,30.09,WSW,246,2.0,7.0,39,0.00,,---,0.00,VWS V14.01,2013-04-25 20:55:00,
2013-04-25 14:00:00,66.0,39.0,30.08,NNE,24,3.0,7.0,37,0.00,,---,0.00,VWS V14.01,2013-04-25 21:00:00,
2013-04-25 14:05:00,66.8,39.0,30.09,WSW,248,5.0,7.0,36,0.00,,---,0.00,VWS V14.01,2013-04-25 21:05:00,
2013-04-25 14:10:00,66.8,39.0,30.09,SW,220,4.0,7.0,36,0.00,,---,0.00,VWS V14.01,2013-04-25 21:10:00,
2013-04-25 14:15:00,66.5,38.8,30.09,WSW,248,1.0,7.0,36,0.00,,---,0.00,VWS V14.01,2013-04-25 21:15:00,
2013-04-25 14:20:00,66.7,39.6,30.09,SSW,209,0.0,8.0,37,0.00,,---,0.00,VWS V14.01,2013-04-25 21:20:00,
2013-04-25 14:25:00,66.5,38.0,30.09,SSW,209,3.0,8.0,35,0.00,,---,0.00,VWS V14.01,2013-04-25 21:25:00,
2013-04-25 14:30:00,66.3,38.6,30.09,West,272,3.0,8.0,36,0.00,,---,0.00,VWS V14.01,2013-04-25 21:30:00,
2013-04-25 14:35:00,66.8,39.7,30.09,SSW,193,2.0,8.0,37,0.00,,---,0.00,VWS V14.01,2013-04-25 21:35:00,
2013-04-25 14:40:00,66.8,39.0,30.08,SW,234,2.0,8.0,36,0.00,,---,0.00,VWS V14.01,2013-04-25 21:40:00,
2013-04-25 14:45:00,67.2,39.4,30.08,ENE,74,0.0,8.0,36,0.00,,---,0.00,VWS V14.01,2013-04-25 21:45:00,
2013-04-25 14:50:00,67.3,39.5,30.08,WSW,247,5.0,8.0,36,0.00,,---,0.00,VWS V14.01,2013-04-25 21:50:00,
2013-04-25 14:55:00,67.4,39.5,30.08,SSW,200,3.0,8.0,36,0.00,,---,0.00,VWS V14.01,2013-04-25 21:55:00,
2013-04-25 15:00:00,68.2,40.2,30.08,NW,318,1.0,8.0,36,0.00,,---,0.00,VWS V14.01,2013-04-25 22:00:00,
2013-04-25 15:05:00,68.2,40.2,30.08,West,259,3.0,7.0,36,0.00,,---,0.00,VWS V14.01,2013-04-25 22:05:00,
2013-04-25 15:10:00,67.9,40.0,30.08,SSE,148,0.0,7.0,36,0.00,,---,0.00,VWS V14.01,2013-04-25 22:10:00,
2013-04-25 15:15:00,68.5,39.8,30.09,West,279,3.0,7.0,35,0.00,,---,0.00,VWS V14.01,2013-04-25 22:15:00,
2013-04-25 15:20:00,68.8,40.8,30.08,South,178,3.0,5.0,36,0.00,,---,0.00,VWS V14.01,2013-04-25 22:20:00,
2013-04-25 15:25:00,69.4,41.3,30.08,SSE,165,2.0,7.0,36,0.00,,---,0.00,VWS V14.01,2013-04-25 22:25:00,
2013-04-25 15:30:00,70.0,41.1,30.08,WNW,295,5.0,7.0,35,0.00,,---,0.00,VWS V14.01,2013-04-25 22:30:00,
2013-04-25 15:35:00,69.5,39.9,30.08,SW,236,7.0,8.0,34,0.00,,---,0.00,VWS V14.01,2013-04-25 22:35:00,
2013-04-25 15:40:00,69.6,40.0,30.08,SSW,192,1.0,8.0,34,0.00,,---,0.00,VWS V14.01,2013-04-25 22:40:00,
2013-04-25 15:45:00,69.4,41.3,30.08,SSW,212,3.0,8.0,36,0.00,,---,0.00,VWS V14.01,2013-04-25 22:45:00,
2013-04-25 15:49:00,69.6,40.8,30.08,SW,219,1.0,8.0,35,0.00,,---,0.00,VWS V14.01,2013-04-25 22:49:00,
2013-04-25 15:54:00,70.4,40.7,30.08,West,266,3.0,8.0,34,0.00,,---,0.00,VWS V14.01,2013-04-25 22:54:00,
2013-04-25 15:59:00,71.4,40.8,30.08,North,10,1.0,8.0,33,0.00,,---,0.00,VWS V14.01,2013-04-25 22:59:00,
2013-04-25 16:04:00,72.2,41.5,30.07,ENE,60,2.0,3.0,33,0.00,,---,0.00,VWS V14.01,2013-04-25 23:04:00,
2013-04-25 16:09:00,72.2,41.5,30.07,ENE,64,1.0,8.0,33,0.00,,---,0.00,VWS V14.01,2013-04-25 23:09:00,
2013-04-25 16:14:00,72.4,40.1,30.07,NE,36,3.0,8.0,31,0.00,,---,0.00,VWS V14.01,2013-04-25 23:14:00,
2013-04-25 16:19:00,71.8,40.4,30.08,NE,39,3.0,4.0,32,0.00,,---,0.00,VWS V14.01,2013-04-25 23:19:00,
2013-04-25 16:24:00,70.6,40.9,30.07,ENE,60,2.0,4.0,34,0.00,,---,0.00,VWS V14.01,2013-04-25 23:24:00,
2013-04-25 16:29:00,70.5,41.6,30.07,ESE,118,2.0,4.0,35,0.00,,---,0.00,VWS V14.01,2013-04-25 23:29:00,
2013-04-25 16:35:00,71.0,40.5,30.07,NNE,32,1.0,6.0,33,0.00,,---,0.00,VWS V14.01,2013-04-25 23:35:00,
2013-04-25 16:40:00,71.3,41.5,30.07,NNE,30,1.0,6.0,34,0.00,,---,0.00,VWS V14.01,2013-04-25 23:40:00,
2013-04-25 16:45:00,71.3,40.7,30.07,ESE,111,3.0,9.0,33,0.00,,---,0.00,VWS V14.01,2013-04-25 23:45:00,
2013-04-25 16:50:00,70.7,41.7,30.07,NNE,22,3.0,5.0,35,0.00,,---,0.00,VWS V14.01,2013-04-25 23:50:00,
2013-04-25 16:55:00,71.7,41.1,30.07,East,93,1.0,5.0,33,0.00,,---,0.00,VWS V14.01,2013-04-25 23:55:00,
2013-04-25 16:59:00,71.8,41.2,30.07,NNE,13,4.0,8.0,33,0.00,,---,0.00,VWS V14.01,2013-04-25 23:59:00,
2013-04-25 17:04:00,71.6,41.0,30.07,East,96,5.0,5.0,33,0.00,,---,0.00,VWS V14.01,2013-04-26 00:04:00,
2013-04-25 17:09:00,71.1,41.3,30.07,NNE,31,5.0,6.0,34,0.00,,---,0.00,VWS V14.01,2013-04-26 00:09:00,
2013-04-25 17:14:00,70.5,40.8,30.07,North,5,3.0,6.0,34,0.00,,---,0.00,VWS V14.01,2013-04-26 00:14:00,
2013-04-25 17:19:00,70.6,40.9,30.07,NE,49,5.0,5.0,34,0.00,,---,0.00,VWS V14.01,2013-04-26 00:19:00,
2013-04-25 17:24:00,70.6,40.1,30.07,ENE,64,3.0,5.0,33,0.00,,---,0.00,VWS V14.01,2013-04-26 00:24:00,
2013-04-25 17:29:00,70.3,39.9,30.07,ENE,69,4.0,5.0,33,0.00,,---,0.00,VWS V14.01,2013-04-26 00:29:00,
2013-04-25 17:34:00,70.0,39.6,30.07,NE,46,0.0,7.0,33,0.00,,---,0.00,VWS V14.01,2013-04-26 00:34:00,
2013-04-25 17:39:00,69.9,40.3,30.07,ENE,67,1.0,7.0,34,0.00,,---,0.00,VWS V14.01,2013-04-26 00:39:00,
2013-04-25 17:44:00,69.7,40.1,30.07,ENE,60,3.0,7.0,34,0.00,,---,0.00,VWS V14.01,2013-04-26 00:44:00,
2013-04-25 17:49:00,69.6,40.8,30.07,NE,42,0.0,7.0,35,0.00,,---,0.00,VWS V14.01,2013-04-26 00:49:00,
2013-04-25 17:54:00,69.5,39.9,30.07,ENE,76,2.0,7.0,34,0.00,,---,0.00,VWS V14.01,2013-04-26 00:54:00,
2013-04-25 17:59:00,69.4,40.6,30.08,ENE,67,1.0,7.0,35,0.00,,---,0.00,VWS V14.01,2013-04-26 00:59:00,
2013-04-25 18:04:00,69.4,39.8,30.07,East,81,3.0,3.0,34,0.00,,---,0.00,VWS V14.01,2013-04-26 01:04:00,
2013-04-25 18:09:00,69.3,39.8,30.08,NE,44,0.0,4.0,34,0.00,,---,0.00,VWS V14.01,2013-04-26 01:09:00,
2013-04-25 18:14:00,69.4,41.3,30.08,NE,53,4.0,5.0,36,0.00,,---,0.00,VWS V14.01,2013-04-26 01:14:00,
2013-04-25 18:19:00,69.2,41.1,30.08,ENE,65,2.0,5.0,36,0.00,,---,0.00,VWS V14.01,2013-04-26 01:19:00,
2013-04-25 18:24:00,69.1,40.3,30.08,NE,50,4.0,5.0,35,0.00,,---,0.00,VWS V14.01,2013-04-26 01:24:00,
2013-04-25 18:29:00,68.5,39.8,30.08,NE,42,2.0,5.0,35,0.00,,---,0.00,VWS V14.01,2013-04-26 01:29:00,
2013-04-25 18:34:00,68.4,40.4,30.08,ENE,63,4.0,5.0,36,0.00,,---,0.00,VWS V14.01,2013-04-26 01:34:00,
2013-04-25 18:39:00,68.4,41.8,30.08,NE,46,2.0,6.0,38,0.00,,---,0.00,VWS V14.01,2013-04-26 01:39:00,
2013-04-25 18:44:00,68.4,39.7,30.08,ENE,74,2.0,6.0,35,0.00,,---,0.00,VWS V14.01,2013-04-26 01:44:00,
2013-04-25 18:49:00,68.4,41.1,30.08,ENE,61,2.0,3.0,37,0.00,,---,0.00,VWS V14.01,2013-04-26 01:49:00,
2013-04-25 18:54:00,68.7,40.0,30.08,ENE,71,1.0,4.0,35,0.00,,---,0.00,VWS V14.01,2013-04-26 01:54:00,
2013-04-25 18:59:00,68.6,40.6,30.08,NE,51,1.0,4.0,36,0.00,,---,0.00,VWS V14.01,2013-04-26 01:59:00,
2013-04-25 19:04:00,68.6,41.3,30.08,NE,51,0.0,2.0,37,0.00,,---,0.00,VWS V14.01,2013-04-26 02:04:00,
2013-04-25 19:09:00,68.4,41.8,30.08,NE,39,0.0,3.0,38,0.00,,---,0.00,VWS V14.01,2013-04-26 02:09:00,
2013-04-25 19:14:00,67.9,41.4,30.08,ENE,65,4.0,5.0,38,0.00,,---,0.00,VWS V14.01,2013-04-26 02:14:00,
2013-04-25 19:19:00,66.4,41.4,30.08,ENE,57,2.0,5.0,40,0.00,,---,0.00,VWS V14.01,2013-04-26 02:19:00,
2013-04-25 19:24:00,65.4,42.9,30.08,ENE,65,2.0,5.0,44,0.00,,---,0.00,VWS V14.01,2013-04-26 02:24:00,
2013-04-25 19:29:00,64.5,42.7,30.08,East,89,2.0,6.0,45,0.00,,---,0.00,VWS V14.01,2013-04-26 02:29:00,
2013-04-25 19:34:00,63.6,42.5,30.09,NE,53,2.0,5.0,46,0.00,,---,0.00,VWS V14.01,2013-04-26 02:34:00,
2013-04-25 19:39:00,62.9,42.4,30.09,NE,56,2.0,5.0,47,0.00,,---,0.00,VWS V14.01,2013-04-26 02:39:00,
2013-04-25 19:44:00,62.3,42.9,30.09,NE,54,2.0,5.0,49,0.00,,---,0.00,VWS V14.01,2013-04-26 02:44:00,
2013-04-25 19:49:00,61.8,43.0,30.09,NE,51,1.0,3.0,50,0.00,,---,0.00,VWS V14.01,2013-04-26 02:49:00,
2013-04-25 19:54:00,61.5,43.2,30.09,ENE,62,2.0,3.0,51,0.00,,---,0.00,VWS V14.01,2013-04-26 02:54:00,
2013-04-25 19:59:00,61.0,43.3,30.09,NE,38,1.0,3.0,52,0.00,,---,0.00,VWS V14.01,2013-04-26 02:59:00,
2013-04-25 20:04:00,60.7,43.5,30.10,NE,40,1.0,2.0,53,0.00,,---,0.00,VWS V14.01,2013-04-26 03:04:00,
2013-04-25 20:09:00,60.2,43.5,30.10,ENE,73,3.0,4.0,54,0.00,,---,0.00,VWS V14.01,2013-04-26 03:09:00,
2013-04-25 20:14:00,59.3,43.6,30.10,East,84,2.0,4.0,56,0.00,,---,0.00,VWS V14.01,2013-04-26 03:14:00,
2013-04-25 20:19:00,58.7,44.0,30.10,ENE,59,0.0,2.0,58,0.00,,---,0.00,VWS V14.01,2013-04-26 03:19:00,
2013-04-25 20:24:00,58.0,43.8,30.10,ENE,69,1.0,3.0,59,0.00,,---,0.00,VWS V14.01,2013-04-26 03:24:00,
2013-04-25 20:29:00,57.6,44.3,30.10,ENE,69,1.0,3.0,61,0.00,,---,0.00,VWS V14.01,2013-04-26 03:29:00,
2013-04-25 20:34:00,57.1,44.2,30.10,ENE,69,0.0,2.0,62,0.00,,---,0.00,VWS V14.01,2013-04-26 03:34:00,
2013-04-25 20:39:00,56.7,44.3,30.11,ENE,74,2.0,2.0,63,0.00,,---,0.00,VWS V14.01,2013-04-26 03:39:00,
2013-04-25 20:44:00,56.2,44.2,30.11,ENE,74,1.0,2.0,64,0.00,,---,0.00,VWS V14.01,2013-04-26 03:44:00,
2013-04-25 20:49:00,55.9,44.3,30.11,ENE,74,1.0,2.0,65,0.00,,---,0.00,VWS V14.01,2013-04-26 03:49:00,
2013-04-25 20:54:00,55.4,44.2,30.11,ENE,67,1.0,3.0,66,0.00,,---,0.00,VWS V14.01,2013-04-26 03:54:00,
2013-04-25 20:59:00,54.9,44.5,30.11,ENE,69,1.0,3.0,68,0.00,,---,0.00,VWS V14.01,2013-04-26 03:59:00,
2013-04-25 21:01:00,54.8,44.5,30.11,ENE,61,1.0,2.0,68,0.00,,---,0.00,VWS V14.01,2013-04-26 04:01:00,
2013-04-25 21:06:00,54.3,44.4,30.11,NE,44,2.0,4.0,69,0.00,,---,0.00,VWS V14.01,2013-04-26 04:06:00,
2013-04-25 21:11:00,53.9,44.3,30.12,ENE,72,2.0,5.0,70,0.00,,---,0.00,VWS V14.01,2013-04-26 04:11:00,
2013-04-25 21:16:00,53.5,44.3,30.12,NE,49,3.0,3.0,71,0.00,,---,0.00,VWS V14.01,2013-04-26 04:16:00,
2013-04-25 21:21:00,53.1,44.3,30.12,ENE,77,1.0,3.0,72,0.00,,---,0.00,VWS V14.01,2013-04-26 04:21:00,
2013-04-25 21:26:00,52.8,44.4,30.12,ENE,78,3.0,5.0,73,0.00,,---,0.00,VWS V14.01,2013-04-26 04:26:00,
2013-04-25 21:31:00,52.4,44.4,30.12,ENE,60,2.0,2.0,74,0.00,,---,0.00,VWS V14.01,2013-04-26 04:31:00,
2013-04-25 21:36:00,52.2,44.5,30.12,East,93,5.0,5.0,75,0.00,,---,0.00,VWS V14.01,2013-04-26 04:36:00,
2013-04-25 21:41:00,51.9,44.2,30.12,NE,55,3.0,5.0,75,0.00,,---,0.00,VWS V14.01,2013-04-26 04:41:00,
2013-04-25 21:46:00,51.7,44.4,30.13,East,83,0.0,1.0,76,0.00,,---,0.00,VWS V14.01,2013-04-26 04:46:00,
2013-04-25 21:51:00,51.5,44.2,30.13,ENE,65,2.0,3.0,76,0.00,,---,0.00,VWS V14.01,2013-04-26 04:51:00,
2013-04-25 21:56:00,51.2,44.2,30.13,ENE,67,2.0,5.0,77,0.00,,---,0.00,VWS V14.01,2013-04-26 04:56:00,
2013-04-25 22:01:00,51.0,44.4,30.13,NNE,32,0.0,1.0,78,0.00,,---,0.00,VWS V14.01,2013-04-26 05:01:00,
2013-04-25 22:06:00,50.9,44.3,30.14,ENE,64,1.0,2.0,78,0.00,,---,0.00,VWS V14.01,2013-04-26 05:06:00,
2013-04-25 22:11:00,50.7,44.1,30.14,NE,43,0.0,4.0,78,0.00,,---,0.00,VWS V14.01,2013-04-26 05:11:00,
2013-04-25 22:16:00,50.5,44.2,30.14,ENE,61,1.0,1.0,79,0.00,,---,0.00,VWS V14.01,2013-04-26 05:16:00,
2013-04-25 22:21:00,50.3,44.4,30.14,ESE,103,3.0,5.0,80,0.00,,---,0.00,VWS V14.01,2013-04-26 05:21:00,
2013-04-25 22:26:00,50.2,44.3,30.14,NE,51,2.0,5.0,80,0.00,,---,0.00,VWS V14.01,2013-04-26 05:26:00,
2013-04-25 22:31:00,50.1,44.2,30.14,ENE,58,1.0,1.0,80,0.00,,---,0.00,VWS V14.01,2013-04-26 05:31:00,
2013-04-25 22:36:00,49.9,44.3,30.14,ENE,59,3.0,3.0,81,0.00,,---,0.00,VWS V14.01,2013-04-26 05:36:00,
2013-04-25 22:41:00,49.8,44.2,30.14,ENE,77,3.0,4.0,81,0.00,,---,0.00,VWS V14.01,2013-04-26 05:41:00,
2013-04-25 22:46:00,49.6,44.3,30.14,ENE,75,2.0,2.0,82,0.00,,---,0.00,VWS V14.01,2013-04-26 05:46:00,
2013-04-25 22:51:00,49.5,44.2,30.14,NE,52,3.0,5.0,82,0.00,,---,0.00,VWS V14.01,2013-04-26 05:51:00,
2013-04-25 22:56:00,49.3,44.4,30.14,ENE,63,2.0,5.0,83,0.00,,---,0.00,VWS V14.01,2013-04-26 05:56:00,
2013-04-25 23:01:00,49.2,44.3,30.14,East,79,0.0,0.0,83,0.00,,---,0.00,VWS V14.01,2013-04-26 06:01:00,
2013-04-25 23:06:00,49.1,44.2,30.15,East,85,0.0,1.0,83,0.00,,---,0.00,VWS V14.01,2013-04-26 06:06:00,
2013-04-25 23:11:00,49.0,44.4,30.15,East,89,0.0,1.0,84,0.00,,---,0.00,VWS V14.01,2013-04-26 06:11:00,
2013-04-25 23:16:00,48.8,44.2,30.15,NE,40,3.0,3.0,84,0.00,,---,0.00,VWS V14.01,2013-04-26 06:16:00,
2013-04-25 23:21:00,48.7,44.1,30.15,NE,40,0.0,3.0,84,0.00,,---,0.00,VWS V14.01,2013-04-26 06:21:00,
2013-04-25 23:26:00,48.6,44.3,30.15,NE,40,0.0,3.0,85,0.00,,---,0.00,VWS V14.01,2013-04-26 06:26:00,
2013-04-25 23:31:00,48.5,44.2,30.15,NE,40,1.0,1.0,85,0.00,,---,0.00,VWS V14.01,2013-04-26 06:31:00,
2013-04-25 23:35:00,48.3,44.0,30.15,NE,40,0.0,1.0,85,0.00,,---,0.00,VWS V14.01,2013-04-26 06:35:00,
2013-04-25 23:40:00,48.1,44.1,30.15,NE,40,0.0,1.0,86,0.00,,---,0.00,VWS V14.01,2013-04-26 06:40:00,
2013-04-25 23:45:00,47.9,43.9,30.15,NE,40,0.0,0.0,86,0.00,,---,0.00,VWS V14.01,2013-04-26 06:45:00,
2013-04-25 23:50:00,47.8,44.1,30.15,NE,40,0.0,1.0,87,0.00,,---,0.00,VWS V14.01,2013-04-26 06:50:00,
2013-04-25 23:55:00,47.7,44.0,30.16,NE,40,1.0,1.0,87,0.00,,---,0.00,VWS V14.01,2013-04-26 06:55:00,